Tracking 33208 objects as of 14-Feb-2026
HD Live streaming from Space Station
objects crossing your sky now

SL-12 DEB

Track SL-12 DEB now!
10-day predictions


NORAD ID: 29328
Int'l Code: 1989-039AK
Perigee: 851.6 km
Apogee: 18,400.0 km
Inclination: 65.3 °
Period: 335.6 minutes
Semi major axis: 15996 km
RCS: 0.0222 m2 (small)
Launch date: May 31, 1989
Source: Commonwealth of Independent States (former USSR) (CIS)
Launch site: TYURATAM MISSILE AND SPACE COMPLEX (TTMTR)

Note: This is SATELLITE DEBRIS
Your satellite tracking list
Your tracking list is empty




NASA's NSSDC Master Catalog

Two Line Element Set (TLE):
1 29328U 89039AK  26040.90026751  .00000083  00000-0  38963-3 0  9998
2 29328  65.2854 238.4591 5484951 103.4977   3.2484  4.29094605305496
Source of the keplerian elements: AFSPC